This is the latest recevied weather packets stored in our database for station/object PA2JOK. If no packets are shown the sender has not sent any weather packets the latest 1 day(s).
| Time | Temp. | Humidity | Pressure | Rain* | Wind** | Luminosity | Snow |
|---|---|---|---|---|---|---|---|
| 1836274107 | 17.22° C | 91% | 1012.7 hPa | 0 mm | 0 m/s | - | - |
| 1836273958 | 17.22° C | 91% | 1012.9 hPa | 0 mm | 0.89 m/s, 238° | - | - |
| 1778031182 | 9.44° C | 73% | 1008.6 hPa | 0 mm | 0.89 m/s, 77° | - | - |
| 1778030283 | 9.44° C | 74% | 1008.7 hPa | 0 mm | 0.89 m/s, 61° | - | - |
| 1778029383 | 9.44° C | 75% | 1008.8 hPa | 0 mm | 0.89 m/s, 51° | - | - |
| 1778028483 | 9.44° C | 75% | 1008.9 hPa | 0 mm | 0.89 m/s, 33° | - | - |
| 1778027582 | 9.44° C | 75% | 1009 hPa | 0 mm | 0 m/s | - | - |
| 1778026682 | 9.44° C | 75% | 1009.2 hPa | 0 mm | 0 m/s | - | - |
| 1778025783 | 9.44° C | 75% | 1009.3 hPa | 0 mm | 0 m/s | - | - |
| 1778024883 | 9.44° C | 74% | 1009.4 hPa | 0 mm | 0.89 m/s, 39° | - | - |
| 1778023982 | 9.44° C | 74% | 1009.4 hPa | 0 mm | 0 m/s | - | - |
| 1778023083 | 9.44° C | 73% | 1009.6 hPa | 0 mm | 0.89 m/s, 152° | - | - |
| 1778022183 | 9.44° C | 71% | 1009.5 hPa | 0 mm | 0 m/s | - | - |
| 1778021283 | 9.44° C | 71% | 1009.7 hPa | 0 mm | 0.89 m/s, 23° | - | - |
| 1778020382 | 9.44° C | 70% | 1009.8 hPa | 0 mm | 0 m/s | - | - |
| 1778019484 | 9.44° C | 70% | 1009.8 hPa | 0 mm | 0.89 m/s, 116° | - | - |
| 1778018582 | 9.44° C | 70% | 1010 hPa | 0 mm | 0 m/s | - | - |
| 1778017683 | 9.44° C | 71% | 1010 hPa | 0 mm | 0.89 m/s, 169° | - | - |
| 1778016783 | 9.44° C | 71% | 1010.1 hPa | 0 mm | 0 m/s | - | - |
| 1778015882 | 10° C | 71% | 1010 hPa | 0 mm | 2.68 m/s, 32° | - | - |
| 1778014982 | 10° C | 71% | 1010 hPa | 0 mm | 0 m/s | - | - |
| 1778014083 | 10° C | 71% | 1010.1 hPa | 0 mm | 1.79 m/s, 23° | - | - |
| 1778013183 | 10.56° C | 70% | 1010.1 hPa | 0 mm | 1.79 m/s, 58° | - | - |
| 1778012283 | 10.56° C | 69% | 1010.3 hPa | 0 mm | 0.89 m/s, 101° | - | - |
| 1778011383 | 10.56° C | 69% | 1010.1 hPa | 0 mm | 0 m/s | - | - |
* Rain latest hour (hover to see other rain measurements)
** Current wind speed in m/s (hover to see current wind gust speed)